SCP
-0 -0 -0 -0 -0 -0 0 0 0 0 0 0 0 0 0 0 0 0 0 0 0 0 0 0 0 0 0 0 0 0 0 0 0 0 0 0 0 0 0 0 0 0 0
0 0 0 0 0 0 0 0 0 0 0 0 0 0 0 0 0 0 0 0 0 0 0 0 0 0 0 0 0 0 0 0 0 0 0 0 0 0 0 0 0 0 0
0 0 0 0 0 0 0 0 0 0 0 0 0 0 0 0 0 0 0 0 0 0 0 0 0 0 0 0 0 0 0 0 0 0 0 0 0 0 0 0 0 0 0
0 0 0 0 0 0 0 0 0 0 0 0 0 0 0 0 0 0 0 0 0 0 0 0 0 0 0 0 0 0 0 0 0 0 0 0 0 0 0 0 0 0 0
0 0 0 0 0 0 0 0 0 0 0 0 0 0 0 0 0 0 0 0 0 0 0 0 0 0 0 0 0 0 0 0 0 0 0 0 0 0 0 0 0 0 0
0 0 0 0 0 0 0 0 0 0 0 0 0 0 0 0 0 0 0 0 0 0 0 0 0 0 0 0 0 0 0 0 0 0 0 0 0 0 0 0 0 0 0
0 0 0 0 0 0 0 0 0 0 0 0 0 0 0 0 0 -0 -0 0 0 0 0 0 0 0 0 0 0 0 0 0 0 0 0 0 0 0 0 0 0 0 0
0 0 0 0 0 0 0 0 0 0 0 0 0 -0 -0 -0 -0 -0 -0 0 0 0 0 0 0 0 0 0 0 0 0 0 0 0 0 0 0 0 0 0 0 0 0
0 0 0 0 0 0 0 0 0 0 0 0 0 0 -0 -0 -0 -0 -0 -0 -0 0 0 0 0 0 0 0 0 0 0 0 0 0 0 0 0 0 0 0 0 0 0
0 0 0 0 0 0 0 0 -0 -0 -0 -0 -0 -0 -0 -0 -0 -0 -0 -0 -0 -0 -0 0 0 0 0 0 0 0 0 0 0 0 0 0 0 0 0 0 0 0 0
0 -0 -0 -0 -0 -0 -0 -0 -0 -0 -0 -0 -0 -0 -0 -0 -0 -0 -0 -0 -0 0 0 0 0 0 0 0 0 0 0 0 0 0 0 0 0 0 0 0 0 0 0
-0 -0 0 -0 -0 -0 0 -0 -0 -0 -0 -0 -0 -0 -0 -0 -0 -0 0 -0 0 -0 -0 0 0 0 0 0 0 0 0 0 0 0 0 0 0 0 0 0 0 0 0
-0 -0 0 -0 -0 -0 -0 -0 -0 -0 -0 -0 -0 -0 -0 0 0 -0 -0 -0 -0 -0 -0 0 0 0 0 0 0 0 0 0 0 0 0 0 0 0 0 0 0 0 0
-0 -0 0 0 0 -0 -0 -0 -0 -0 -0 -0 0 0 0 0 0 0 0 -0 -0 0 0 0 0 0 0 0 0 0 0 0 0 0 0 0 0 0 0 0 0 0 0
-0 0 0 0 0 0 0 0 0 0 0 0 0 0 -0 -0 -0 -0 -0 0 0 0 0 0 0 0 0 0 0 0 0 0 0 0 0 0 0 0 0 0 0 0 0
0 -0 -0 0 -0 -0 -0 -0 0 -0 -0 0 0 0 -0 -0 0 -0 -0 0 0 0 0 0 0 0 0 0 0 0 0 0 0 0 0 0 0 0 0 0 0 0 0
-0 -0 -0 -0 -0 0 0 -0 0 0 0 0 0 0 -0 0 0 0 0 0 0 0 0 0 0 0 0 0 0 0 0 0 0 0 0 0 0 0 0 0 0 0 0
0 0 0 0 -0 -0 -0 0 0 0 0 0 -0 0 -0 0 0 0 0 0 0 0 0 0 0 0 0 0 0 0 0 0 0 0 0 0 0 0 0 0 0 0 0
0 0 0 0 0 -0 -0 0 0 0 0 0 0 0 0 0 0 0 0 0 0 0 0 0 0 0 0 0 0 0 0 0 0 0 0 0 0 0 0 0 0 0 0
0 0 0 0 0 0 0 0 0 0 0 0 0 0 0 0 0 0 0 0 0 0 0 0 0 0 0 0 0 0 0 0 0 0 0 0 0 0 0 0 0 0 0
0 0 0 0 0 0 0 0 0 0 0 0 0 0 0 0 0 0 0 0 0 0 0 0 0 0 0 0 0 0 0 0 0 0 0 0 0 0 0 0 0 0 0
0 0 0 0 0 0 0 0 0 0 0 0 0 0 0 0 0 0 0 0 0 0 0 0 0 0 0 0 0 0 0 0 0 0 0 0 0 0 0 0 0 0 0
0 0 0 0 0 0 0 0 0 0 0 0 0 0 0 0 0 0 0 0 0 0 0 0 0 0 0 0 0 0 0 0 0 0 0 0 0 0 0 0 0 0 -0
0 0 0 0 0 0 0 0 0 0 0 0 0 0 0 0 0 0 0 0 0 0 0 0 0 0 0 0 0 0 0 0 0 0 0 0 0 0 0 0 -0 -0 -0
0 0 0 0 0 0 0 0 0 0 0 0 0 0 0 0 0 0 0 0 0 0 0 0 0 0 0 0 0 0 0 0 0 0 0 0 0 0 0 0 -0 -0 -0
0 0 0 0 0 0 0 0 0 0 0 0 0 0 0 0 0 0 0 0 0 0 0 0 0 0 0 0 0 0 0 0 0 0 0 0 0 0 0 -0 -0 -0 0
Wind_Speed_500mb
17 21 19 21 14 15 28 25 27 28 27 19 27 34 30 33 32 37 36 38 30 32 35 31 32 29 33 35 40 41 32 21 26 31 26 18 13 14 16 21 23 26 28
9 11 12 17 24 26 30 29 28 29 33 30 29 33 33 31 30 27 34 33 35 35 34 34 36 35 34 34 33 31 27 22 23 30 25 20 17 18 20 24 27 30 32
13 14 17 22 29 34 37 39 41 31 29 29 30 27 26 30 35 33 34 38 35 32 32 34 38 35 38 37 35 32 29 26 24 20 18 15 12 16 21 26 33 36 38
20 22 20 21 22 25 28 30 33 36 28 28 28 30 32 35 35 36 36 40 39 35 32 32 33 29 28 31 30 28 25 22 18 13 8 9 14 17 25 30 27 29 38
17 22 21 16 14 16 21 26 26 32 29 35 38 32 31 34 36 40 37 37 38 36 34 30 29 26 23 19 17 15 14 12 10 8 10 13 14 15 19 24 32 35 37
19 17 14 15 21 23 25 32 35 32 30 30 36 40 37 34 36 32 33 33 33 32 30 26 21 18 18 15 12 10 7 4 3 8 11 16 20 22 23 25 33 38 39
11 9 15 17 18 25 38 41 46 37 32 31 25 24 29 30 30 31 27 25 27 28 27 25 21 18 14 12 11 9 10 13 16 22 24 23 25 23 32 35 35 40 41
11 22 21 21 16 14 23 30 30 39 34 41 33 36 24 25 28 27 34 28 27 26 25 23 21 17 13 10 14 17 19 23 26 29 30 32 35 35 35 40 44 46 43
25 23 21 22 22 15 16 25 25 24 22 23 24 28 34 35 34 33 32 31 26 22 23 22 19 18 18 21 22 24 25 28 33 35 32 34 38 35 34 36 32 39 51
33 23 17 14 20 26 20 24 24 21 29 36 39 38 37 33 30 27 23 22 22 20 19 18 20 20 23 26 27 28 29 23 28 32 33 36 35 34 27 31 35 40 48
27 23 16 17 22 24 26 26 26 24 23 22 22 24 25 25 24 23 21 20 18 20 21 21 25 25 28 29 30 32 29 24 31 31 31 32 33 27 25 30 38 40 48
19 18 14 17 19 20 21 21 21 21 21 23 24 25 24 26 27 27 26 24 23 24 23 24 25 27 28 28 30 29 29 31 31 31 30 31 25 24 27 32 40 49 54
24 23 21 23 23 22 22 21 21 21 21 22 22 23 22 22 22 23 24 22 23 22 22 23 23 23 23 24 25 27 30 32 30 31 32 28 27 30 38 44 49 52 56
23 23 25 26 24 27 30 29 26 24 23 21 19 17 17 20 21 21 23 22 20 19 19 19 20 21 21 22 24 26 29 34 35 36 33 32 32 36 40 41 47 49 55
20 25 25 28 29 29 29 30 27 25 21 18 15 13 17 18 17 19 20 20 20 19 19 18 18 18 18 18 21 26 31 36 40 41 39 37 39 40 42 42 47 51 54
27 25 30 30 31 25 33 31 28 26 23 21 19 19 14 6 10 17 18 20 21 19 19 19 19 20 22 24 26 29 32 38 42 42 41 43 45 45 45 45 48 50 54
38 33 32 36 32 33 34 32 27 26 27 26 26 20 19 16 13 13 15 19 23 24 25 24 27 28 31 36 40 45 48 48 49 49 46 47 47 47 46 46 48 49 53
45 44 43 37 36 34 34 31 28 27 25 24 25 28 27 27 25 24 23 24 28 32 34 37 38 38 43 46 48 47 47 48 51 56 56 55 53 51 47 47 49 51 54
42 43 45 42 39 37 34 33 30 28 27 26 22 25 28 28 28 34 38 40 38 38 40 44 48 50 53 55 59 59 58 53 53 55 57 55 55 49 44 45 49 52 54
51 47 45 48 46 46 42 39 36 35 35 35 33 31 31 36 38 43 49 49 51 49 48 49 49 49 53 55 52 51 49 49 48 49 53 55 51 58 59 63 48 49 49
61 60 59 58 54 47 45 44 42 42 40 38 39 35 37 41 38 32 33 35 41 42 41 42 44 43 43 42 43 43 43 47 53 49 49 62 65 63 66 39 40 41 45
67 65 66 64 59 60 59 50 48 54 48 43 40 37 44 46 47 38 35 38 44 48 50 49 45 39 37 37 40 51 65 60 48 45 47 45 52 60 34 31 34 36 44
62 65 64 66 66 62 63 62 66 65 61 47 41 37 37 46 49 50 48 47 48 46 45 47 44 37 41 47 52 49 48 47 47 42 39 45 41 27 23 25 29 37 43
67 64 63 63 59 56 54 57 56 62 51 49 45 48 46 49 49 49 48 48 44 44 46 44 42 47 41 38 36 30 27 26 22 20 23 29 27 18 19 24 30 37 44
61 67 68 63 55 57 60 63 55 58 60 61 56 55 54 48 44 42 38 35 38 40 39 32 26 23 20 22 28 29 25 26 26 29 27 16 14 17 20 26 33 39 43
45 60 65 63 61 59 58 48 46 50 59 63 61 62 46 45 39 33 26 20 17 14 11 12 13 13 15 20 20 16 15 12 9 8 9 13 14 18 24 31 36 40 39
Wind_Direction_500mb
110 109 110 102 107 121 155 142 143 153 180 174 153 151 139 163 143 161 141 146 153 169 164 167 161 156 165 172 177 186 192 185 160 180 190 206 231 258 277 287 294 298 304
186 178 150 142 134 147 149 151 141 142 144 143 144 154 162 148 157 147 146 141 163 163 156 157 147 145 147 154 172 184 194 198 182 173 185 205 231 256 276 290 297 304 306
129 141 143 146 146 139 141 136 138 136 138 136 133 138 146 153 161 149 153 151 149 152 151 148 138 139 141 144 149 153 155 156 164 160 179 201 236 275 292 300 301 306 311
114 112 117 132 139 143 138 131 132 131 134 137 146 156 156 153 154 155 155 148 149 154 151 149 139 142 147 151 152 154 156 160 167 165 199 239 272 276 292 296 295 301 308
111 112 113 132 148 148 140 132 130 128 145 158 160 163 160 156 156 151 149 145 149 154 158 151 148 156 160 159 158 152 152 153 160 187 235 255 267 280 292 289 295 305 308
149 143 147 166 174 170 159 145 141 143 152 158 161 162 162 163 157 155 155 159 160 162 156 150 152 156 158 158 153 151 170 177 251 266 275 282 290 295 299 294 301 304 306
178 168 180 174 166 166 155 154 150 153 153 149 156 161 172 171 166 162 166 163 168 171 165 162 158 161 157 163 179 203 234 264 285 287 294 287 288 290 294 297 297 298 298
187 150 147 132 127 154 176 172 170 161 169 169 173 164 168 183 186 191 191 199 196 189 185 179 176 177 186 216 243 253 266 277 280 283 286 294 295 290 289 294 299 301 303
167 159 160 157 157 142 134 129 146 162 163 175 194 199 194 208 208 206 203 204 201 201 200 203 202 211 227 243 259 267 264 269 276 279 279 285 289 285 291 290 290 296 300
171 167 155 163 170 167 170 180 178 180 184 196 200 197 203 205 202 198 192 196 202 204 214 223 235 245 251 257 260 266 268 268 270 277 283 288 288 290 278 284 289 294 300
163 168 174 162 166 173 176 172 166 171 178 177 180 185 185 190 188 196 199 213 225 239 245 251 257 258 261 266 271 273 277 271 282 280 280 283 284 272 272 282 293 293 294
205 208 195 193 188 176 170 173 179 184 189 192 192 197 196 199 203 214 224 235 244 254 261 261 263 267 268 270 275 275 276 277 277 278 277 279 269 267 282 286 291 294 290
210 223 216 210 205 207 204 211 213 207 205 206 203 205 211 217 222 228 236 242 247 258 270 273 269 268 272 274 275 273 274 279 278 275 280 278 274 275 281 288 291 293 298
237 220 207 205 201 202 207 209 213 209 207 208 213 217 225 232 236 237 238 245 258 277 272 262 264 267 271 273 279 283 285 284 278 278 276 276 275 278 283 288 290 294 297
219 211 205 207 206 203 206 209 213 212 214 218 226 246 253 257 255 251 252 255 263 260 264 265 263 259 264 276 287 291 288 286 286 285 275 274 272 274 278 287 290 297 295
217 214 211 208 213 226 220 221 225 228 231 242 254 271 278 272 287 263 257 254 257 257 258 264 268 270 274 281 286 289 290 288 285 276 266 264 268 275 280 285 291 293 294
227 227 225 227 231 234 225 226 237 247 254 262 266 261 257 256 283 307 265 252 242 254 264 271 271 272 277 279 282 283 283 282 278 270 263 266 269 272 277 284 290 293 294
237 238 233 230 230 228 229 235 244 249 257 266 268 254 252 262 268 268 264 254 253 262 270 273 275 279 280 279 281 281 280 277 275 276 270 266 264 266 269 279 286 292 295
237 233 226 225 225 227 232 238 242 246 253 263 264 259 258 262 267 265 261 258 258 257 266 273 277 279 283 286 288 286 283 278 273 270 269 269 268 264 265 277 283 289 294
238 234 232 230 231 234 236 238 242 247 255 259 262 265 263 265 268 268 262 261 262 262 264 264 268 272 277 280 280 281 282 282 282 280 280 268 259 256 263 285 277 284 291
238 241 236 236 235 235 238 239 243 245 251 257 262 262 259 258 259 264 249 253 264 270 269 270 272 273 275 278 283 286 285 288 289 285 279 285 275 263 270 269 272 284 294
241 241 244 243 244 245 243 242 243 246 248 253 257 259 263 260 259 258 261 264 266 271 275 276 276 275 277 280 283 288 292 295 294 298 295 293 279 270 258 263 277 290 300
247 244 246 246 246 247 248 249 245 250 254 252 255 255 255 257 258 262 263 265 270 274 276 278 282 287 289 292 294 295 296 295 294 292 299 294 280 256 266 269 284 297 304
247 250 247 244 242 245 245 249 251 254 249 244 250 260 261 260 258 257 260 268 270 273 277 282 285 289 295 291 296 305 307 302 303 305 300 289 272 262 267 281 294 302 309
253 250 247 247 243 246 249 250 248 249 248 242 249 254 253 255 255 258 262 268 277 284 287 286 289 289 294 299 310 318 323 317 311 290 281 249 256 267 281 293 302 308 311
258 250 251 250 246 246 249 250 248 244 249 239 249 250 243 253 249 250 257 270 283 286 293 304 318 318 309 308 312 317 317 313 291 268 277 279 278 287 292 298 306 309 312
Wind_Speed_850mb
17 21 19 21 14 15 28 25 27 28 27 19 27 34 30 33 32 37 36 38 30 32 35 31 32 29 33 35 40 41 32 21 26 31 26 18 13 14 16 21 23 26 28
9 11 12 17 24 26 30 29 28 29 33 30 29 33 33 31 30 27 34 33 35 35 34 34 36 35 34 34 33 31 27 22 23 30 25 20 17 18 20 24 27 30 32
13 14 17 22 29 34 37 39 41 31 29 29 30 27 26 30 35 33 34 38 35 32 32 34 38 35 38 37 35 32 29 26 24 20 18 15 12 16 21 26 33 36 38
20 22 20 21 22 25 28 30 33 36 28 28 28 30 32 35 35 36 36 40 39 35 32 32 33 29 28 31 30 28 25 22 18 13 8 9 14 17 25 30 27 29 38
17 22 21 16 14 16 21 26 26 32 29 35 38 32 31 34 36 40 37 37 38 36 34 30 29 26 23 19 17 15 14 12 10 8 10 13 14 15 19 24 32 35 37
19 17 14 15 21 23 25 32 35 32 30 30 36 40 37 34 36 32 33 33 33 32 30 26 21 18 18 15 12 10 7 4 3 8 11 16 20 22 23 25 33 38 39
11 9 15 17 18 25 38 41 46 37 32 31 25 24 29 30 30 31 27 25 27 28 27 25 21 18 14 12 11 9 10 13 16 22 24 23 25 23 32 35 35 40 41
11 22 21 21 16 14 23 30 30 39 34 41 33 36 24 25 28 27 34 28 27 26 25 23 21 17 13 10 14 17 19 23 26 29 30 32 35 35 35 40 44 46 43
25 23 21 22 22 15 16 25 25 24 22 23 24 28 34 35 34 33 32 31 26 22 23 22 19 18 18 21 22 24 25 28 33 35 32 34 38 35 34 36 32 39 51
33 23 17 14 20 26 20 24 24 21 29 36 39 38 37 33 30 27 23 22 22 20 19 18 20 20 23 26 27 28 29 23 28 32 33 36 35 34 27 31 35 40 48
27 23 16 17 22 24 26 26 26 24 23 22 22 24 25 25 24 23 21 20 18 20 21 21 25 25 28 29 30 32 29 24 31 31 31 32 33 27 25 30 38 40 48
19 18 14 17 19 20 21 21 21 21 21 23 24 25 24 26 27 27 26 24 23 24 23 24 25 27 28 28 30 29 29 31 31 31 30 31 25 24 27 32 40 49 54
24 23 21 23 23 22 22 21 21 21 21 22 22 23 22 22 22 23 24 22 23 22 22 23 23 23 23 24 25 27 30 32 30 31 32 28 27 30 38 44 49 52 56
23 23 25 26 24 27 30 29 26 24 23 21 19 17 17 20 21 21 23 22 20 19 19 19 20 21 21 22 24 26 29 34 35 36 33 32 32 36 40 41 47 49 55
20 25 25 28 29 29 29 30 27 25 21 18 15 13 17 18 17 19 20 20 20 19 19 18 18 18 18 18 21 26 31 36 40 41 39 37 39 40 42 42 47 51 54
27 25 30 30 31 25 33 31 28 26 23 21 19 19 14 6 10 17 18 20 21 19 19 19 19 20 22 24 26 29 32 38 42 42 41 43 45 45 45 45 48 50 54
38 33 32 36 32 33 34 32 27 26 27 26 26 20 19 16 13 13 15 19 23 24 25 24 27 28 31 36 40 45 48 48 49 49 46 47 47 47 46 46 48 49 53
45 44 43 37 36 34 34 31 28 27 25 24 25 28 27 27 25 24 23 24 28 32 34 37 38 38 43 46 48 47 47 48 51 56 56 55 53 51 47 47 49 51 54
42 43 45 42 39 37 34 33 30 28 27 26 22 25 28 28 28 34 38 40 38 38 40 44 48 50 53 55 59 59 58 53 53 55 57 55 55 49 44 45 49 52 54
51 47 45 48 46 46 42 39 36 35 35 35 33 31 31 36 38 43 49 49 51 49 48 49 49 49 53 55 52 51 49 49 48 49 53 55 51 58 59 63 48 49 49
61 60 59 58 54 47 45 44 42 42 40 38 39 35 37 41 38 32 33 35 41 42 41 42 44 43 43 42 43 43 43 47 53 49 49 62 65 63 66 39 40 41 45
67 65 66 64 59 60 59 50 48 54 48 43 40 37 44 46 47 38 35 38 44 48 50 49 45 39 37 37 40 51 65 60 48 45 47 45 52 60 34 31 34 36 44
62 65 64 66 66 62 63 62 66 65 61 47 41 37 37 46 49 50 48 47 48 46 45 47 44 37 41 47 52 49 48 47 47 42 39 45 41 27 23 25 29 37 43
67 64 63 63 59 56 54 57 56 62 51 49 45 48 46 49 49 49 48 48 44 44 46 44 42 47 41 38 36 30 27 26 22 20 23 29 27 18 19 24 30 37 44
61 67 68 63 55 57 60 63 55 58 60 61 56 55 54 48 44 42 38 35 38 40 39 32 26 23 20 22 28 29 25 26 26 29 27 16 14 17 20 26 33 39 43
45 60 65 63 61 59 58 48 46 50 59 63 61 62 46 45 39 33 26 20 17 14 11 12 13 13 15 20 20 16 15 12 9 8 9 13 14 18 24 31 36 40 39
Wind_Direction_850mb
110 109 110 102 107 121 155 142 143 153 180 174 153 151 139 163 143 161 141 146 153 169 164 167 161 156 165 172 177 186 192 185 160 180 190 206 231 258 277 287 294 298 304
186 178 150 142 134 147 149 151 141 142 144 143 144 154 162 148 157 147 146 141 163 163 156 157 147 145 147 154 172 184 194 198 182 173 185 205 231 256 276 290 297 304 306
129 141 143 146 146 139 141 136 138 136 138 136 133 138 146 153 161 149 153 151 149 152 151 148 138 139 141 144 149 153 155 156 164 160 179 201 236 275 292 300 301 306 311
114 112 117 132 139 143 138 131 132 131 134 137 146 156 156 153 154 155 155 148 149 154 151 149 139 142 147 151 152 154 156 160 167 165 199 239 272 276 292 296 295 301 308
111 112 113 132 148 148 140 132 130 128 145 158 160 163 160 156 156 151 149 145 149 154 158 151 148 156 160 159 158 152 152 153 160 187 235 255 267 280 292 289 295 305 308
149 143 147 166 174 170 159 145 141 143 152 158 161 162 162 163 157 155 155 159 160 162 156 150 152 156 158 158 153 151 170 177 251 266 275 282 290 295 299 294 301 304 306
178 168 180 174 166 166 155 154 150 153 153 149 156 161 172 171 166 162 166 163 168 171 165 162 158 161 157 163 179 203 234 264 285 287 294 287 288 290 294 297 297 298 298
187 150 147 132 127 154 176 172 170 161 169 169 173 164 168 183 186 191 191 199 196 189 185 179 176 177 186 216 243 253 266 277 280 283 286 294 295 290 289 294 299 301 303
167 159 160 157 157 142 134 129 146 162 163 175 194 199 194 208 208 206 203 204 201 201 200 203 202 211 227 243 259 267 264 269 276 279 279 285 289 285 291 290 290 296 300
171 167 155 163 170 167 170 180 178 180 184 196 200 197 203 205 202 198 192 196 202 204 214 223 235 245 251 257 260 266 268 268 270 277 283 288 288 290 278 284 289 294 300
163 168 174 162 166 173 176 172 166 171 178 177 180 185 185 190 188 196 199 213 225 239 245 251 257 258 261 266 271 273 277 271 282 280 280 283 284 272 272 282 293 293 294
205 208 195 193 188 176 170 173 179 184 189 192 192 197 196 199 203 214 224 235 244 254 261 261 263 267 268 270 275 275 276 277 277 278 277 279 269 267 282 286 291 294 290
210 223 216 210 205 207 204 211 213 207 205 206 203 205 211 217 222 228 236 242 247 258 270 273 269 268 272 274 275 273 274 279 278 275 280 278 274 275 281 288 291 293 298
237 220 207 205 201 202 207 209 213 209 207 208 213 217 225 232 236 237 238 245 258 277 272 262 264 267 271 273 279 283 285 284 278 278 276 276 275 278 283 288 290 294 297
219 211 205 207 206 203 206 209 213 212 214 218 226 246 253 257 255 251 252 255 263 260 264 265 263 259 264 276 287 291 288 286 286 285 275 274 272 274 278 287 290 297 295
217 214 211 208 213 226 220 221 225 228 231 242 254 271 278 272 287 263 257 254 257 257 258 264 268 270 274 281 286 289 290 288 285 276 266 264 268 275 280 285 291 293 294
227 227 225 227 231 234 225 226 237 247 254 262 266 261 257 256 283 307 265 252 242 254 264 271 271 272 277 279 282 283 283 282 278 270 263 266 269 272 277 284 290 293 294
237 238 233 230 230 228 229 235 244 249 257 266 268 254 252 262 268 268 264 254 253 262 270 273 275 279 280 279 281 281 280 277 275 276 270 266 264 266 269 279 286 292 295
237 233 226 225 225 227 232 238 242 246 253 263 264 259 258 262 267 265 261 258 258 257 266 273 277 279 283 286 288 286 283 278 273 270 269 269 268 264 265 277 283 289 294
238 234 232 230 231 234 236 238 242 247 255 259 262 265 263 265 268 268 262 261 262 262 264 264 268 272 277 280 280 281 282 282 282 280 280 268 259 256 263 285 277 284 291
238 241 236 236 235 235 238 239 243 245 251 257 262 262 259 258 259 264 249 253 264 270 269 270 272 273 275 278 283 286 285 288 289 285 279 285 275 263 270 269 272 284 294
241 241 244 243 244 245 243 242 243 246 248 253 257 259 263 260 259 258 261 264 266 271 275 276 276 275 277 280 283 288 292 295 294 298 295 293 279 270 258 263 277 290 300
247 244 246 246 246 247 248 249 245 250 254 252 255 255 255 257 258 262 263 265 270 274 276 278 282 287 289 292 294 295 296 295 294 292 299 294 280 256 266 269 284 297 304
247 250 247 244 242 245 245 249 251 254 249 244 250 260 261 260 258 257 260 268 270 273 277 282 285 289 295 291 296 305 307 302 303 305 300 289 272 262 267 281 294 302 309
253 250 247 247 243 246 249 250 248 249 248 242 249 254 253 255 255 258 262 268 277 284 287 286 289 289 294 299 310 318 323 317 311 290 281 249 256 267 281 293 302 308 311
258 250 251 250 246 246 249 250 248 244 249 239 249 250 243 253 249 250 257 270 283 286 293 304 318 318 309 308 312 317 317 313 291 268 277 279 278 287 292 298 306 309 312